Location: Colonia Mina de C?rbuni
(46.1667°N, 22.7167°E)
Time: 22:25:43
(UTC+00:00)

Transit 4A - All Passes

Search period start: 16 April 2024 00:00
Search period end: 26 April 2024 00:00
Orbit: 871 x 972 km, 66.8° (Epoch: 16 April)

Date Brightness Start Highest point End Pass type
(mag) Time Alt. Az. Time Alt. Az. Time Alt. Az.
16 Apr - 11:01:13 10° SSE 11:06:04 26° ESE 11:10:50 10° NE daylight
16 Apr - 12:46:03 10° SW 12:52:00 61° NW 12:57:50 10° NNE daylight
16 Apr - 14:35:42 10° WNW 14:39:33 17° NNW 14:43:23 10° N daylight
16 Apr - 18:14:33 10° N 18:17:47 15° NNE 18:21:02 10° ENE visible
16 Apr - 19:59:57 10° NNW 20:05:36 48° NE 20:11:16 10° SE visible
16 Apr - 21:46:37 10° NW 21:51:44 33° WSW 21:56:53 10° S visible
17 Apr - 11:09:27 10° S 11:14:56 37° ESE 11:20:18 10° NE daylight
17 Apr - 12:55:29 10° WSW 13:01:11 44° NW 13:06:49 10° NNE daylight
17 Apr - 14:46:01 10° NW 14:49:06 14° NNW 14:52:10 10° N daylight
17 Apr - 18:23:21 10° NNW 18:27:19 18° NNE 18:31:17 10° ENE visible
17 Apr - 20:08:57 10° NNW 20:14:46 67° NE 20:20:36 10° SE visible
17 Apr - 21:56:10 10° WNW 22:00:34 22° WSW 22:04:57 10° SSW visible
18 Apr - 11:18:01 10° SSW 11:23:51 54° ESE 11:29:34 10° NE daylight
18 Apr - 13:05:06 10° WSW 13:10:26 33° NW 13:15:44 10° NNE daylight
18 Apr - 14:56:33 10° NW 14:58:43 12° NNW 15:00:53 10° N daylight
18 Apr - 18:32:11 10° NNW 18:36:46 23° NE 18:41:20 10° E visible
18 Apr - 20:17:59 10° NW 20:23:51 87° WSW 20:29:44 10° SSE visible
18 Apr - 22:06:11 10° WNW 22:09:19 15° WSW 22:12:26 10° SW visible
19 Apr - 09:44:52 10° SE 09:47:27 13° ESE 09:50:02 10° ENE daylight
19 Apr - 11:26:50 10° SSW 11:32:50 78° ESE 11:38:44 10° NE daylight
19 Apr - 13:14:54 10° W 13:19:47 26° NW 13:24:37 10° NNE daylight
19 Apr - 15:07:25 10° NNW 15:08:22 10° NNW 15:09:20 10° N daylight
19 Apr - 16:56:03 10° N 16:57:43 11° NNE 16:59:25 10° NNE daylight
19 Apr - 18:41:04 10° NNW 18:46:08 30° NE 18:51:13 10° ESE visible
19 Apr - 20:27:07 10° NW 20:32:51 62° WSW 20:38:37 10° SSE visible
20 Apr - 09:52:01 10° SSE 09:56:11 20° ESE 10:00:19 10° ENE daylight
20 Apr - 11:35:53 10° SW 11:41:54 76° NW 11:47:48 10° NNE daylight
20 Apr - 13:24:53 10° W 13:29:12 20° NNW 13:33:28 10° NNE daylight
20 Apr - 17:04:42 10° N 17:07:22 13° NNE 17:10:02 10° NE daylight
20 Apr - 18:49:58 10° NNW 18:55:26 39° NE 19:00:54 10° ESE visible
20 Apr - 20:36:20 10° NW 20:41:48 42° WSW 20:47:17 10° S visible
21 Apr - 09:59:56 10° SSE 10:05:00 29° ESE 10:09:59 10° NE daylight
21 Apr - 11:45:10 10° SW 11:51:01 55° NW 11:56:48 10° NNE daylight
21 Apr - 13:35:05 10° WNW 13:38:41 16° NNW 13:42:17 10° N daylight
21 Apr - 17:13:27 10° N 17:16:56 16° NNE 17:20:25 10° ENE daylight
21 Apr - 18:58:55 10° NNW 19:04:38 54° NE 19:10:22 10° SE visible
21 Apr - 20:45:44 10° NW 20:50:39 29° WSW 20:55:38 10° SSW visible
22 Apr - 10:08:17 10° S 10:13:52 42° ESE 10:19:22 10° NE daylight
22 Apr - 11:54:38 10° WSW 12:00:14 40° NW 12:05:45 10° NNE daylight
22 Apr - 13:45:27 10° NW 13:48:15 13° NNW 13:51:02 10° N daylight
22 Apr - 17:22:16 10° NNW 17:26:26 20° NNE 17:30:36 10° E daylight
22 Apr - 19:07:55 10° NNW 19:13:46 75° NE 19:19:38 10° SE visible
22 Apr - 20:55:23 10° WNW 20:59:27 20° WSW 21:03:34 10° SSW visible
23 Apr - 10:16:56 10° SSW 10:22:48 61° ESE 10:28:36 10° NE daylight
23 Apr - 12:04:18 10° WSW 12:09:31 31° NW 12:14:40 10° NNE daylight
23 Apr - 13:56:03 10° NW 13:57:53 11° NNW 13:59:43 10° N daylight
23 Apr - 15:46:32 10° N 15:47:14 10° NNE 15:47:56 10° NNE daylight
23 Apr - 17:31:07 10° NNW 17:35:52 25° NE 17:40:36 10° E daylight
23 Apr - 19:17:00 10° NW 19:22:50 79° WSW 19:28:43 10° SSE visible
23 Apr - 21:05:40 10° WNW 21:08:12 13° WSW 21:10:43 10° SW visible
24 Apr - 08:43:10 10° SE 08:46:20 15° ESE 08:49:30 10° ENE daylight
24 Apr - 10:25:48 10° SSW 10:31:49 86° ESE 10:37:43 10° NE daylight
24 Apr - 12:14:10 10° W 12:18:52 24° NW 12:23:32 10° NNE daylight
24 Apr - 15:54:53 10° N 15:56:54 12° NNE 15:58:55 10° NE daylight
24 Apr - 17:40:00 10° NNW 17:45:12 32° NE 17:50:25 10° ESE daylight
24 Apr - 19:26:08 10° NW 19:31:48 55° WSW 19:37:31 10° SSE visible
25 Apr - 08:50:37 10° SSE 08:55:06 22° ESE 08:59:31 10° ENE daylight
25 Apr - 10:34:56 10° SW 10:40:53 69° NW 10:46:46 10° NNE daylight
25 Apr - 12:24:13 10° WNW 12:28:18 19° NNW 12:32:22 10° NNE daylight
25 Apr - 16:03:35 10° N 16:06:31 14° NNE 16:09:26 10° NE daylight
25 Apr - 17:48:55 10° NNW 17:54:28 43° NE 18:00:02 10° ESE daylight
25 Apr - 19:35:24 10° NW 19:40:44 38° WSW 19:46:05 10° S visible
